Tracking 30306 objects as of 25-Apr-2025
HD Live streaming from Space Station
objects crossing your sky now

OBJECT B

Track OBJECT B now!
10-day predictions


NORAD ID: 56847
Int'l Code: 2023-081B
Perigee: 405.7 km
Apogee: 410.6 km
Inclination: 97.3 °
Period: 92.6 minutes
Semi major axis: 6779 km
RCS: Unknown
Launch date: June 7, 2023
Source: (TBD)
Launch site: Jiuquan Satellite Launch Center, China (JSC)
Your satellite tracking list
Your tracking list is empty




NASA's NSSDC Master Catalog

Two Line Element Set (TLE):
1 56847U 23081B   25114.82535739  .00112399  00000-0  16331-2 0  9990
2 56847  97.3355 192.0704 0003618 208.6102 151.4955 15.55396260104900
Source of the keplerian elements: AFSPC